This is the latest recevied weather packets stored in our database for station/object OK1KZE-6. If no packets are shown the sender has not sent any weather packets the latest 10 day(s).
| Time | Temp. | Humidity | Pressure | Rain* | Wind** | Luminosity | Snow |
|---|---|---|---|---|---|---|---|
| 1777203308 | 8.89° C | 48% | 1025.3 hPa | - | - | - | - |
| 1777203009 | 8.89° C | 51% | 1025.2 hPa | - | - | - | - |
| 1777202708 | 9.44° C | 46% | 1025.1 hPa | - | - | - | - |
| 1777202407 | 8.89° C | 47% | 1025.2 hPa | - | - | - | - |
| 1777202107 | 8.89° C | 48% | 1025.3 hPa | - | - | - | - |
| 1777201809 | 9.44° C | 45% | 1025.2 hPa | - | - | - | - |
| 1777201508 | 8.89° C | 47% | 1025.4 hPa | - | - | - | - |
| 1777201208 | 8.33° C | 50% | 1025.4 hPa | - | - | - | - |
| 1777200908 | 8.33° C | 52% | 1025.3 hPa | - | - | - | - |
| 1777200608 | 8.33° C | 49% | 1025.2 hPa | - | - | - | - |
| 1777200308 | 8.33° C | 46% | 1025.3 hPa | - | - | - | - |
| 1777200008 | 8.33° C | 51% | 1025.2 hPa | - | - | - | - |
| 1777199708 | 8.89° C | 51% | 1025.2 hPa | - | - | - | - |
| 1777199408 | 9.44° C | 49% | 1025.2 hPa | - | - | - | - |
| 1777199108 | 8.33° C | 49% | 1025.3 hPa | - | - | - | - |
| 1777198808 | 8.33° C | 47% | 1025.4 hPa | - | - | - | - |
| 1777198508 | 8.33° C | 50% | 1025.3 hPa | - | - | - | - |
| 1777198208 | 7.78° C | 53% | 1025.3 hPa | - | - | - | - |
| 1777197609 | 8.89° C | 54% | 1025.3 hPa | - | - | - | - |
| 1777197307 | 7.78° C | 53% | 1025.1 hPa | - | - | - | - |
| 1777197007 | 7.78° C | 53% | 1025.2 hPa | - | - | - | - |
| 1777196709 | 7.78° C | 56% | 1025.2 hPa | - | - | - | - |
| 1777196407 | 7.22° C | 57% | 1025.2 hPa | - | - | - | - |
| 1777196107 | 7.22° C | 56% | 1025.2 hPa | - | - | - | - |
| 1777195808 | 7.22° C | 56% | 1025.1 hPa | - | - | - | - |
* Rain since midnight (hover to see other rain measurements)
** Current wind speed in m/s (hover to see current wind gust speed)